W9SIG Weather Reports


Display with metric or nautical units.
time (UTC)temp
F
wind
direction
speed
MPH
gust
MPH
rain 1hr
in
rain 24hr
in
rain mn
in
humidity
%
barometer
mb
20260503184922 63 200 4.0 11.0 0.00 0.00 0.00 53 1016.0
20260503184421 63 263 5.0 11.0 0.00 0.00 0.00 51 1016.2
20260503183920 63 85 5.0 15.0 0.00 0.00 0.00 51 1016.2
20260503183420 63 178 5.0 15.0 0.00 0.00 0.00 52 1016.2
20260503182924 62 168 4.0 14.0 0.00 0.00 0.00 57 1016.6
20260503182920 63 240 4.0 12.0 0.00 0.00 0.00 52 1016.4
20260503181918 62 138 5.0 14.0 0.00 0.00 0.00 53 1016.7
20260503181418 62 134 5.0 13.0 0.00 0.00 0.00 52 1016.6
20260503180918 63 118 5.0 12.0 0.00 0.00 0.00 52 1016.8
20260503180421 62 226 4.0 13.0 0.00 0.00 0.00 53 1017.1
20260503180415 63 221 5.0 12.0 0.00 0.00 0.00 51 1016.9
20260503175916 63 156 5.0 13.0 0.00 0.00 0.00 52 1017.0
20260503174915 62 223 5.0 11.0 0.00 0.00 0.00 56 1017.5
20260503174416 62 195 5.0 11.0 0.00 0.00 0.00 52 1017.5
20260503173915 62 198 4.0 11.0 0.00 0.00 0.00 52 1017.7
20260503173413 62 212 5.0 10.0 0.00 0.00 0.00 55 1018.0
20260503172913 63 198 5.0 9.0 0.00 0.00 0.00 52 1018.1
20260503172413 62 235 4.0 11.0 0.00 0.00 0.00 54 1018.0
20260503171913 62 244 4.0 11.0 0.00 0.00 0.00 52 1017.9
20260503171413 62 167 5.0 11.0 0.00 0.00 0.00 57 1018.1
20260503170914 62 195 5.0 11.0 0.00 0.00 0.00 54 1018.2
20260503170412 62 151 4.0 11.0 0.00 0.00 0.00 55 1018.3
20260503150909 58 219 4.0 17.0 0.00 0.00 0.00 60 1019.8
20260503131403 45 159 2.0 6.0 0.00 0.00 0.00 49 1019.9
20260503130903 44 190 2.0 5.0 0.00 0.00 0.00 45 1020.0
20260503130403 44 181 2.0 7.0 0.00 0.00 0.00 37 1020.1
20260503110357 36 282 0.0 2.0 0.00 0.00 0.00 1 1019.4
20260503090353 36 304 0.0 2.0 0.00 0.00 0.00 1 1019.4
20260503081351 36 0 0.0 2.0 0.00 0.00 0.00 1 1019.4
20260503080850 36 0 0.0 2.0 0.00 0.00 0.00 1 1019.3
20260503080350 36 0 0.0 2.0 0.00 0.00 0.00 1 1019.4
20260503072850 36 5 0.0 0.0 0.00 0.00 0.00 2 1019.3
20260503072348 36 5 0.0 0.0 0.00 0.00 0.00 3 1019.4
20260503071848 36 5 0.0 0.0 0.00 0.00 0.00 4 1019.3
20260503071348 36 5 0.0 0.0 0.00 0.00 0.00 5 1019.4
20260503071344 36 5 0.0 0.0 0.00 0.00 0.00 5 1019.4
20260503070342 37 5 0.0 0.0 0.00 0.00 0.00 6 1019.4
20260503060340 37 5 0.0 0.0 0.00 0.00 0.00 14 1019.8
20260503054840 37 5 0.0 0.0 0.00 0.00 0.00 19 1019.8
20260503054340 37 5 0.0 0.0 0.00 0.00 0.00 19 1019.9
20260503053841 37 5 0.0 0.0 0.00 0.00 0.00 20 1019.9
20260503053341 37 5 0.0 0.0 0.00 0.00 0.00 22 1019.9
20260503052839 38 5 0.0 0.0 0.00 0.00 0.00 23 1019.9
20260503052338 38 5 0.0 0.0 0.00 0.00 0.00 24 1019.9
20260503051838 38 5 0.0 0.0 0.00 0.00 0.00 25 1019.9
20260503051337 38 5 0.0 0.0 0.00 0.00 0.00 27 1020.0
20260503050837 38 5 0.0 0.0 0.00 0.00 0.00 29 1020.0
20260503050337 38 5 0.0 0.0 0.00 0.00 0.00 30 1020.0
20260503045841 38 5 0.0 0.0 0.00 0.00 0.00 33 1020.0
20260503045837 38 5 0.0 0.0 0.00 0.00 0.00 32 1020.0
20260503044838 38 5 0.0 0.0 0.00 0.00 0.00 33 1019.9
20260503044338 39 5 0.0 0.0 0.00 0.00 0.00 33 1019.9
20260503043842 39 5 0.0 1.0 0.00 0.00 0.00 37 1019.9
20260503043838 39 5 0.0 1.0 0.00 0.00 0.00 35 1019.9
20260503042836 39 5 0.0 0.0 0.00 0.00 0.00 40 1020.0
20260503042336 39 5 0.0 0.0 0.00 0.00 0.00 45 1020.0
20260503041838 39 5 0.0 0.0 0.00 0.00 0.00 49 1020.0
20260503041834 39 5 0.0 0.0 0.00 0.00 0.00 49 1020.0
20260503040834 39 5 0.0 0.0 0.00 0.00 0.00 50 1020.0
20260503040334 39 5 0.0 0.0 0.00 0.00 0.00 50 1020.0
20260503035834 39 5 0.0 0.0 0.00 0.00 0.00 53 1020.0
20260503035334 40 5 0.0 0.0 0.00 0.00 0.00 54 1020.0
20260503034834 40 5 0.0 0.0 0.00 0.00 0.00 54 1020.0
20260503034333 40 5 0.0 0.0 0.00 0.00 0.00 54 1019.9
20260503033833 40 5 0.0 0.0 0.00 0.00 0.00 53 1019.9
20260503033333 40 5 0.0 0.0 0.00 0.00 0.00 52 1019.9
20260503032833 40 5 0.0 0.0 0.00 0.00 0.00 53 1019.9
20260503032333 41 5 0.0 0.0 0.00 0.00 0.00 54 1019.9
20260503031833 41 5 0.0 0.0 0.00 0.00 0.00 55 1019.9
20260503031333 41 5 0.0 0.0 0.00 0.00 0.00 59 1019.9
20260503030833 41 5 0.0 0.0 0.00 0.00 0.00 62 1019.9
20260503030333 41 5 0.0 0.0 0.00 0.00 0.00 61 1020.0
20260503025831 42 5 0.0 0.0 0.00 0.00 0.00 61 1020.0
20260503025331 42 5 0.0 0.0 0.00 0.00 0.00 62 1020.0
20260503024831 42 5 0.0 0.0 0.00 0.00 0.00 64 1020.0
20260503024438 42 5 0.0 0.0 0.00 0.00 0.00 66 1020.0
20260503024335 42 5 0.0 0.0 0.00 0.00 0.00 66 1020.0
20260503024331 42 5 0.0 0.0 0.00 0.00 0.00 64 1019.9
20260503023438 43 5 0.0 0.0 0.00 0.00 0.00 66 1019.9
20260503022331 43 5 0.0 0.0 0.00 0.00 0.00 66 1019.9
20260503021836 44 5 0.0 0.0 0.00 0.00 0.00 67 1019.7
20260503021831 43 5 0.0 0.0 0.00 0.00 0.00 66 1019.9
20260503021332 44 5 0.0 0.0 0.00 0.00 0.00 67 1019.8
20260503020332 44 5 0.0 0.0 0.00 0.00 0.00 67 1019.7
20260503015832 45 5 0.0 0.0 0.00 0.00 0.00 67 1019.6
20260503015337 46 5 0.0 0.0 0.00 0.00 0.00 65 1019.5
20260503015331 45 5 0.0 0.0 0.00 0.00 0.00 67 1019.6
20260503014831 46 5 0.0 0.0 0.00 0.00 0.00 66 1019.5
20260503013833 47 5 0.0 0.0 0.00 0.00 0.00 63 1019.4
20260503013829 47 5 0.0 0.0 0.00 0.00 0.00 63 1019.4
20260503013328 47 5 0.0 0.0 0.00 0.00 0.00 63 1019.3
20260503012331 48 5 0.0 0.0 0.00 0.00 0.00 59 1019.3
20260503012327 48 5 0.0 0.0 0.00 0.00 0.00 62 1019.3
20260503011328 49 5 0.0 0.0 0.00 0.00 0.00 59 1019.2
20260503010828 49 5 0.0 0.0 0.00 0.00 0.00 57 1019.1
20260503010332 50 5 0.0 0.0 0.00 0.00 0.00 55 1019.1
20260503010328 49 5 0.0 0.0 0.00 0.00 0.00 55 1019.1
20260503005327 50 5 0.0 1.0 0.00 0.00 0.00 55 1019.0
20260503004827 51 5 0.0 1.0 0.00 0.00 0.00 54 1019.1
20260503004326 51 0 0.0 3.0 0.00 0.00 0.00 51 1019.1
20260503003826 51 0 0.0 3.0 0.00 0.00 0.00 52 1019.1
20260503003325 51 0 0.0 1.0 0.00 0.00 0.00 52 1019.1
20260503002825 51 0 1.0 4.0 0.00 0.00 0.00 51 1019.1
20260503002325 51 0 2.0 7.0 0.00 0.00 0.00 50 1019.1
20260503001830 52 5 2.0 5.0 0.00 0.00 0.00 49 1019.1
20260503001825 51 355 2.0 7.0 0.00 0.00 0.00 48 1019.1
20260503000831 52 5 1.0 5.0 0.00 0.00 0.00 47 1018.9
20260503000825 52 0 2.0 5.0 0.00 0.00 0.00 47 1019.1
20260503000326 52 337 2.0 6.0 0.00 0.00 0.00 49 1019.0
20260502235825 52 349 2.0 6.0 0.00 0.00 0.00 48 1018.9
20260502235430 52 198 1.0 3.0 0.00 0.00 0.00 50 1018.9
20260502234323 52 242 1.0 4.0 0.00 0.00 0.00 47 1018.9
20260502233821 52 288 1.0 4.0 0.00 0.00 0.00 46 1018.9
20260502233319 52 11 2.0 6.0 0.00 0.00 0.00 46 1018.9
20260502232817 52 11 2.0 6.0 0.00 0.00 0.00 44 1018.8
20260502232318 53 33 1.0 5.0 0.00 0.00 0.00 47 1018.8
20260502231816 53 24 2.0 5.0 0.00 0.00 0.00 47 1018.9
20260502231321 53 5 2.0 5.0 0.00 0.00 0.00 48 1018.9
20260502231317 53 0 3.0 10.0 0.00 0.00 0.00 47 1018.9
20260502230319 53 338 1.0 5.0 0.00 0.00 0.00 46 1018.8
20260502230315 53 5 2.0 10.0 0.00 0.00 0.00 46 1018.9
20260502225936 53 5 2.0 5.0 0.00 0.00 0.00 46 1018.8
20260502224811 53 47 2.0 6.0 0.00 0.00 0.00 47 1018.8
20260502224312 53 355 2.0 6.0 0.00 0.00 0.00 45 1018.9
20260502223811 53 173 1.0 4.0 0.00 0.00 0.00 48 1018.8
20260502223308 53 342 1.0 8.0 0.00 0.00 0.00 49 1018.9
20260502222809 53 342 2.0 8.0 0.00 0.00 0.00 46 1018.9
20260502222309 53 342 3.0 9.0 0.00 0.00 0.00 44 1019.0
20260502221809 54 351 2.0 9.0 0.00 0.00 0.00 44 1018.9
20260502221312 54 69 4.0 11.0 0.00 0.00 0.00 43 1018.8
20260502221308 54 19 3.0 9.0 0.00 0.00 0.00 46 1018.8
20260502220310 54 326 3.0 13.0 0.00 0.00 0.00 44 1018.8
20260502215809 54 51 3.0 13.0 0.00 0.00 0.00 49 1018.9
20260502215308 54 317 3.0 11.0 0.00 0.00 0.00 46 1018.8
20260502214808 54 5 3.0 9.0 0.00 0.00 0.00 45 1018.8
20260502214313 54 0 3.0 10.0 0.00 0.00 0.00 47 1018.8
20260502214309 54 355 4.0 10.0 0.00 0.00 0.00 43 1018.8
20260502213309 54 52 2.0 7.0 0.00 0.00 0.00 46 1018.8
20260502212810 54 269 4.0 9.0 0.00 0.00 0.00 47 1018.7
20260502212309 54 351 4.0 12.0 0.00 0.00 0.00 43 1018.8
20260502211808 55 31 3.0 12.0 0.00 0.00 0.00 46 1018.7
20260502211308 55 355 2.0 6.0 0.00 0.00 0.00 48 1018.6
20260502210812 54 256 2.0 8.0 0.00 0.00 0.00 46 1018.6
20260502210808 54 225 2.0 7.0 0.00 0.00 0.00 44 1018.6
20260502210415 54 325 2.0 8.0 0.00 0.00 0.00 44 1018.7
20260502205309 54 321 3.0 8.0 0.00 0.00 0.00 48 1018.7
20260502204809 55 281 3.0 8.0 0.00 0.00 0.00 45 1018.7
20260502204308 55 44 3.0 11.0 0.00 0.00 0.00 47 1018.6
20260502203809 55 342 4.0 11.0 0.00 0.00 0.00 41 1018.6
20260502203309 56 38 3.0 10.0 0.00 0.00 0.00 46 1018.7
20260502202806 56 0 3.0 10.0 0.00 0.00 0.00 45 1018.7
20260502202306 56 173 4.0 9.0 0.00 0.00 0.00 45 1018.7
20260502201811 56 19 2.0 9.0 0.00 0.00 0.00 53 1018.8
20260502201807 56 29 3.0 9.0 0.00 0.00 0.00 48 1018.8
20260502200810 56 13 4.0 15.0 0.00 0.00 0.00 42 1018.9
20260502200806 56 5 3.0 11.0 0.00 0.00 0.00 43 1018.8
20260502195804 57 317 4.0 15.0 0.00 0.00 0.00 45 1018.9
20260502195309 57 22 2.0 8.0 0.00 0.00 0.00 46 1018.8
20260502195305 57 14 3.0 10.0 0.00 0.00 0.00 42 1018.8
20260502194304 57 124 3.0 11.0 0.00 0.00 0.00 44 1018.9
20260502193804 57 266 4.0 11.0 0.00 0.00 0.00 44 1018.9
20260502193304 57 186 3.0 7.0 0.00 0.00 0.00 51 1019.0
20260502192802 56 19 3.0 7.0 0.00 0.00 0.00 49 1019.0
20260502192305 56 220 3.0 9.0 0.00 0.00 0.00 49 1019.0
20260502191803 55 32 4.0 9.0 0.00 0.00 0.00 49 1019.1
20260502191302 54 43 4.0 10.0 0.00 0.00 0.00 52 1019.2
20260502190802 54 32 3.0 10.0 0.00 0.00 0.00 49 1019.2
20260502190302 54 5 4.0 10.0 0.00 0.00 0.00 44 1019.3
20260502185802 54 351 5.0 15.0 0.00 0.00 0.00 46 1019.3